Total_Precipitation_Accumulation
0.45 0.45 0.45 0.43 0.40 0.35 0.30 0.30 0.30 0.33 0.37 0.40 0.47 0.51 0.53 0.57 0.61 0.70 0.83 1.02 1.13 1.16 1.19 1.25 1.26 1.25 1.24 1.23 1.30 1.42 1.54 1.53 1.31 1.11 1.15 1.17 1.13 1.01 0.95 0.88 0.75 0.66 0.54
0.61 0.69 0.70 0.62 0.53 0.44 0.35 0.30 0.30 0.32 0.35 0.37 0.37 0.40 0.41 0.46 0.52 0.63 0.75 0.86 0.95 0.98 0.98 0.98 0.96 0.94 0.97 0.98 1.05 1.14 1.23 1.40 1.37 1.25 1.32 1.37 1.35 1.25 1.19 1.11 0.92 0.72 0.60
0.67 0.91 1.02 0.94 0.80 0.62 0.43 0.29 0.25 0.25 0.28 0.29 0.31 0.35 0.42 0.53 0.63 0.69 0.72 0.76 0.78 0.81 0.88 0.92 0.86 0.83 0.84 0.86 0.89 0.88 0.93 1.11 1.23 1.26 1.31 1.42 1.43 1.42 1.29 1.14 1.08 0.95 0.74
0.62 0.78 0.85 0.78 0.68 0.55 0.37 0.24 0.19 0.19 0.22 0.26 0.31 0.37 0.46 0.53 0.62 0.67 0.68 0.67 0.63 0.59 0.63 0.69 0.71 0.69 0.69 0.74 0.78 0.79 0.82 0.95 1.10 1.20 1.29 1.46 1.49 1.43 1.38 1.23 1.21 1.11 0.99
0.40 0.46 0.51 0.46 0.35 0.30 0.25 0.21 0.19 0.20 0.22 0.27 0.32 0.39 0.43 0.44 0.46 0.43 0.42 0.42 0.40 0.38 0.37 0.40 0.47 0.52 0.55 0.57 0.60 0.73 0.80 0.86 0.94 1.02 1.09 1.29 1.52 1.56 1.37 1.27 1.33 1.33 1.20
0.24 0.28 0.34 0.36 0.29 0.24 0.20 0.16 0.16 0.19 0.23 0.28 0.33 0.38 0.39 0.34 0.37 0.28 0.20 0.20 0.25 0.29 0.33 0.35 0.36 0.39 0.43 0.44 0.45 0.52 0.66 0.75 0.80 0.87 0.95 1.11 1.33 1.49 1.53 1.50 1.44 1.35 1.33
0.23 0.27 0.35 0.37 0.34 0.29 0.22 0.20 0.20 0.22 0.24 0.27 0.28 0.28 0.30 0.34 0.31 0.24 0.15 0.15 0.19 0.22 0.27 0.31 0.28 0.28 0.33 0.35 0.36 0.36 0.39 0.47 0.59 0.72 0.81 0.88 1.03 1.23 1.40 1.40 1.46 1.48 1.50
0.22 0.27 0.32 0.37 0.35 0.32 0.32 0.33 0.35 0.33 0.31 0.30 0.28 0.27 0.32 0.33 0.27 0.22 0.17 0.16 0.21 0.24 0.27 0.29 0.29 0.26 0.26 0.31 0.36 0.36 0.33 0.32 0.35 0.45 0.57 0.75 0.93 1.13 1.37 1.38 1.38 1.47 1.58
0.22 0.30 0.34 0.38 0.38 0.38 0.39 0.40 0.42 0.42 0.37 0.34 0.32 0.34 0.37 0.39 0.31 0.22 0.18 0.20 0.27 0.29 0.30 0.29 0.28 0.27 0.24 0.20 0.28 0.35 0.37 0.36 0.33 0.34 0.41 0.61 0.85 0.98 1.20 1.33 1.30 1.29 1.24
0.23 0.31 0.36 0.41 0.45 0.46 0.48 0.48 0.47 0.50 0.44 0.38 0.35 0.38 0.42 0.48 0.43 0.28 0.23 0.26 0.34 0.37 0.42 0.37 0.29 0.24 0.23 0.20 0.25 0.31 0.34 0.35 0.38 0.37 0.37 0.45 0.59 0.78 0.92 1.06 1.15 1.15 1.06
0.22 0.29 0.39 0.45 0.51 0.54 0.59 0.61 0.61 0.60 0.58 0.54 0.47 0.45 0.49 0.53 0.53 0.36 0.27 0.32 0.43 0.50 0.53 0.46 0.40 0.27 0.23 0.23 0.25 0.31 0.31 0.33 0.43 0.47 0.48 0.53 0.60 0.70 0.79 0.87 1.01 1.11 1.08
0.27 0.36 0.43 0.47 0.45 0.48 0.64 0.69 0.72 0.75 0.71 0.67 0.63 0.55 0.56 0.60 0.55 0.45 0.32 0.30 0.42 0.60 0.70 0.64 0.55 0.41 0.32 0.28 0.27 0.27 0.26 0.25 0.35 0.45 0.51 0.54 0.57 0.60 0.68 0.80 0.92 0.98 1.05
0.36 0.42 0.47 0.48 0.52 0.61 0.70 0.74 0.78 0.83 0.81 0.75 0.73 0.69 0.66 0.69 0.64 0.45 0.36 0.32 0.37 0.55 0.73 0.76 0.63 0.49 0.42 0.37 0.32 0.30 0.29 0.29 0.35 0.42 0.45 0.49 0.51 0.56 0.67 0.81 0.97 1.02 1.01
0.45 0.46 0.49 0.54 0.55 0.59 0.70 0.76 0.80 0.85 0.90 0.87 0.82 0.81 0.80 0.80 0.75 0.63 0.50 0.42 0.44 0.54 0.67 0.74 0.66 0.60 0.53 0.51 0.43 0.36 0.34 0.38 0.40 0.44 0.47 0.52 0.58 0.65 0.70 0.76 0.85 0.95 0.98
0.54 0.53 0.52 0.55 0.61 0.68 0.73 0.77 0.75 0.81 0.80 0.81 0.83 0.86 0.88 0.87 0.72 0.63 0.61 0.56 0.61 0.69 0.76 0.89 0.84 0.79 0.71 0.64 0.58 0.53 0.50 0.49 0.45 0.48 0.56 0.61 0.64 0.72 0.75 0.76 0.83 0.83 0.80
0.68 0.67 0.63 0.59 0.64 0.70 0.74 0.71 0.61 0.57 0.54 0.54 0.57 0.61 0.64 0.59 0.52 0.46 0.47 0.48 0.54 0.65 0.73 0.91 0.93 0.89 0.85 0.80 0.70 0.65 0.62 0.59 0.54 0.56 0.60 0.63 0.66 0.70 0.77 0.75 0.76 0.76 0.72
0.75 0.75 0.70 0.65 0.67 0.69 0.73 0.76 0.78 0.71 0.60 0.54 0.49 0.47 0.49 0.46 0.44 0.41 0.42 0.47 0.48 0.54 0.65 0.84 0.91 0.89 0.89 0.86 0.77 0.69 0.65 0.65 0.67 0.66 0.66 0.65 0.69 0.72 0.78 0.78 0.72 0.74 0.72
0.73 0.73 0.72 0.71 0.70 0.72 0.73 0.74 0.81 0.91 0.90 0.77 0.58 0.49 0.45 0.43 0.38 0.37 0.40 0.43 0.44 0.48 0.64 0.80 0.87 0.84 0.83 0.80 0.75 0.68 0.66 0.70 0.75 0.72 0.71 0.70 0.69 0.70 0.75 0.77 0.74 0.67 0.67
0.72 0.71 0.69 0.69 0.69 0.70 0.69 0.70 0.76 0.86 0.94 0.89 0.76 0.62 0.51 0.47 0.41 0.39 0.39 0.39 0.44 0.53 0.68 0.76 0.80 0.81 0.74 0.72 0.72 0.67 0.66 0.68 0.74 0.76 0.73 0.73 0.71 0.70 0.70 0.69 0.71 0.70 0.64
0.73 0.69 0.68 0.68 0.67 0.65 0.65 0.68 0.75 0.83 0.90 0.88 0.81 0.71 0.58 0.55 0.49 0.43 0.39 0.39 0.49 0.59 0.69 0.75 0.78 0.75 0.68 0.68 0.70 0.67 0.65 0.71 0.77 0.77 0.73 0.73 0.74 0.71 0.67 0.66 0.66 0.65 0.58
0.74 0.66 0.60 0.61 0.61 0.61 0.65 0.70 0.73 0.76 0.82 0.78 0.70 0.58 0.50 0.48 0.43 0.40 0.40 0.44 0.52 0.62 0.67 0.71 0.71 0.67 0.65 0.65 0.66 0.67 0.65 0.70 0.75 0.74 0.73 0.74 0.74 0.73 0.69 0.66 0.63 0.61 0.61
0.76 0.65 0.57 0.54 0.56 0.58 0.59 0.66 0.72 0.73 0.71 0.67 0.62 0.50 0.48 0.47 0.40 0.37 0.39 0.44 0.50 0.59 0.58 0.57 0.59 0.59 0.56 0.57 0.61 0.64 0.67 0.70 0.75 0.73 0.70 0.72 0.73 0.71 0.71 0.68 0.68 0.64 0.64
0.78 0.64 0.54 0.49 0.50 0.51 0.53 0.62 0.69 0.68 0.62 0.58 0.54 0.51 0.50 0.51 0.41 0.37 0.40 0.47 0.52 0.54 0.51 0.50 0.52 0.55 0.53 0.52 0.51 0.56 0.62 0.66 0.68 0.65 0.68 0.72 0.71 0.68 0.69 0.65 0.64 0.64 0.64
0.77 0.68 0.58 0.48 0.48 0.52 0.54 0.58 0.61 0.60 0.53 0.48 0.46 0.45 0.46 0.49 0.44 0.41 0.44 0.53 0.52 0.47 0.45 0.46 0.49 0.50 0.52 0.53 0.51 0.49 0.51 0.56 0.56 0.58 0.61 0.65 0.67 0.68 0.68 0.65 0.64 0.62 0.62
0.77 0.67 0.57 0.46 0.44 0.47 0.50 0.54 0.57 0.55 0.50 0.43 0.41 0.41 0.42 0.45 0.42 0.42 0.46 0.48 0.45 0.41 0.38 0.41 0.46 0.47 0.47 0.47 0.45 0.44 0.43 0.44 0.47 0.53 0.57 0.61 0.64 0.68 0.68 0.65 0.65 0.64 0.61
0.70 0.62 0.55 0.48 0.41 0.41 0.46 0.51 0.52 0.51 0.48 0.44 0.41 0.41 0.41 0.41 0.40 0.37 0.36 0.37 0.37 0.37 0.36 0.40 0.46 0.46 0.46 0.44 0.38 0.37 0.36 0.33 0.36 0.45 0.50 0.57 0.65 0.68 0.66 0.66 0.65 0.66 0.64